,,,PA_Meas_PMT16A,,PR_Meas_QMR101_102,,RH_Meas_QMH101,,SR_Meas_QMS101,,TA_Meas_QMH101,,GenWind,,GenWind,
date,time,status,PA,status,PR,status,RH,status,SR,status,TA,status,DirAvg,status,SpdAvg,
2011-09-28, 00:00:04,VALID,999.712,VALID,0,VALID,84.9482,VALID,0,VALID,24.4233,VALID,128,VALID,2.3125,
2011-09-28, 00:01:04,VALID,999.664,VALID,0,VALID,84.5972,VALID,0,VALID,24.5013,VALID,118,VALID,1.84141,
2011-09-28, 00:02:04,VALID,999.649,VALID,0,VALID,84.5057,VALID,0,VALID,24.5404,VALID,125,VALID,1.38945,
2011-09-28, 00:03:04,VALID,999.608,VALID,0,VALID,84.4752,VALID,0,VALID,24.5209,VALID,125,VALID,1.62891,
2011-09-28, 00:04:04,VALID,999.599,VALID,0,VALID,84.6125,VALID,0,VALID,24.4995,VALID,121,VALID,1.55117,
2011-09-28, 00:05:04,VALID,999.574,VALID,0,VALID,84.6049,VALID,0,VALID,24.5209,VALID,134,VALID,1.55508,
2011-09-28, 00:06:04,VALID,999.569,VALID,0,VALID,84.6583,VALID,0,VALID,24.5013,VALID,135,VALID,1.97305,
2011-09-28, 00:07:04,VALID,999.528,VALID,0,VALID,84.6812,VALID,0,VALID,24.5209,VALID,121,VALID,1.69922,
2011-09-28, 00:08:04,VALID,999.516,VALID,0,VALID,84.6049,VALID,0,VALID,24.5209,VALID,121,VALID,2.0332,
2011-09-28, 00:09:04,VALID,999.501,VALID,0,VALID,84.6583,VALID,0,VALID,24.5404,VALID,130,VALID,2.17305,
2011-09-28, 00:10:04,VALID,999.444,VALID,0,VALID,84.6583,VALID,0,VALID,24.5404,VALID,124,VALID,2.36211,
2011-09-28, 00:11:04,VALID,999.369,VALID,0,VALID,84.4904,VALID,0,VALID,24.5599,VALID,124,VALID,2.26133,
2011-09-28, 00:12:04,VALID,999.365,VALID,0,VALID,84.3989,VALID,0,VALID,24.5989,VALID,127,VALID,1.80781,
2011-09-28, 00:13:04,VALID,999.296,VALID,0,VALID,84.1547,VALID,0,VALID,24.5989,VALID,128,VALID,2.64922,
2011-09-28, 00:14:04,VALID,999.261,VALID,0,VALID,84.2005,VALID,0,VALID,24.638,VALID,128,VALID,2.25977,
2011-09-28, 00:15:04,VALID,999.217,VALID,0,VALID,84.1776,VALID,0,VALID,24.6594,VALID,129,VALID,2.85,
2011-09-28, 00:16:04,VALID,999.191,VALID,0,VALID,84.1852,VALID,0,VALID,24.6575,VALID,136,VALID,2.08086,
2011-09-28, 00:17:04,VALID,999.195,VALID,0,VALID,84.0632,VALID,0,VALID,24.6594,VALID,129,VALID,2.71758,
2011-09-28, 00:18:04,VALID,999.153,VALID,0,VALID,83.7885,VALID,0,VALID,24.677,VALID,133,VALID,3.01602,
2011-09-28, 00:19:04,VALID,999.151,VALID,0,VALID,83.7046,VALID,0,VALID,24.7374,VALID,133,VALID,2.17383,
2011-09-28, 00:20:04,VALID,999.139,VALID,0,VALID,83.613,VALID,0,VALID,24.7356,VALID,143,VALID,2.58477,
2011-09-28, 00:21:04,VALID,999.11,VALID,0,VALID,83.3994,VALID,0,VALID,24.7551,VALID,145,VALID,2.75625,
2011-09-28, 00:22:04,VALID,999.103,VALID,0,VALID,83.1629,VALID,0,VALID,24.8136,VALID,142,VALID,1.93086,
2011-09-28, 00:23:04,VALID,999.067,VALID,0,VALID,82.7203,VALID,0,VALID,24.8117,VALID,141,VALID,2.89805,
2011-09-28, 00:24:04,VALID,999.056,VALID,0,VALID,82.522,VALID,0,VALID,24.8917,VALID,151,VALID,2.38672,
2011-09-28, 00:25:04,VALID,999.08,VALID,0,VALID,82.6517,VALID,0,VALID,24.9131,VALID,142,VALID,1.9,
2011-09-28, 00:26:04,VALID,999.108,VALID,0,VALID,82.644,VALID,0,VALID,24.8722,VALID,147,VALID,2.36133,
2011-09-28, 00:27:04,VALID,999.119,VALID,0,VALID,82.7585,VALID,0,VALID,24.8917,VALID,143,VALID,1.48711,
2011-09-28, 00:28:04,VALID,999.099,VALID,0,VALID,82.85,VALID,0,VALID,24.8527,VALID,122,VALID,1.36875,
2011-09-28, 00:29:04,VALID,999.114,VALID,0,VALID,83.1247,VALID,0,VALID,24.8136,VALID,115,VALID,1.15156,
2011-09-28, 00:30:04,VALID,999.151,VALID,0,VALID,83.2392,VALID,0,VALID,24.796,VALID,139,VALID,1.29297,
2011-09-28, 00:31:04,VALID,999.132,VALID,0,VALID,83.0026,VALID,0,VALID,24.7765,VALID,143,VALID,2.26445,
2011-09-28, 00:32:04,VALID,999.09,VALID,0,VALID,82.995,VALID,0,VALID,24.7941,VALID,125,VALID,1.27148,
2011-09-28, 00:33:04,VALID,999.06,VALID,0,VALID,82.9416,VALID,0,VALID,24.8136,VALID,107,VALID,0.666016,
2011-09-28, 00:34:04,VALID,999.107,VALID,0,VALID,82.789,VALID,0,VALID,24.8136,VALID,139,VALID,2.19727,
2011-09-28, 00:35:04,VALID,999.087,VALID,0,VALID,82.6593,VALID,0,VALID,24.8136,VALID,147,VALID,2.27891,
2011-09-28, 00:36:04,VALID,999.006,VALID,0,VALID,82.6669,VALID,0,VALID,24.8527,VALID,104,VALID,1.67031,
2011-09-28, 00:37:04,VALID,998.98,VALID,0,VALID,80.6146,VALID,0,VALID,24.9308,VALID,108,VALID,2.39102,
2011-09-28, 00:38:04,VALID,998.975,VALID,0,VALID,77.433,VALID,0,VALID,25.0869,VALID,133,VALID,2.00391,
2011-09-28, 00:39:04,VALID,998.944,VALID,0,VALID,79.4243,VALID,0,VALID,25.2626,VALID,100,VALID,1.42617,
2011-09-28, 00:40:04,VALID,998.982,VALID,0,VALID,79.8135,VALID,0,VALID,25.2431,VALID,121,VALID,1.27539,
2011-09-28, 00:41:04,VALID,998.937,VALID,0,VALID,80.1339,VALID,0,VALID,25.1845,VALID,122,VALID,1.5082,
2011-09-28, 00:42:04,VALID,998.873,VALID,0,VALID,80.462,VALID,0,VALID,25.1669,VALID,100,VALID,0.811719,
2011-09-28, 00:43:04,VALID,998.861,VALID,0,VALID,80.8129,VALID,0,VALID,25.1279,VALID,94,VALID,0.827734,
2011-09-28, 00:44:04,VALID,998.864,VALID,0,VALID,81.1105,VALID,0,VALID,25.0479,VALID,146,VALID,1.09141,
2011-09-28, 00:45:04,VALID,998.868,VALID,0,VALID,81.3089,VALID,0,VALID,24.9893,VALID,170,VALID,1.49023,
2011-09-28, 00:46:04,VALID,998.816,VALID,0,VALID,80.9732,VALID,0,VALID,25.0303,VALID,175,VALID,1.7957,
2011-09-28, 00:47:04,VALID,998.766,VALID,0,VALID,80.6222,VALID,0,VALID,25.0479,VALID,151,VALID,0.742188,
2011-09-28, 00:48:04,VALID,998.749,VALID,0,VALID,80.6985,VALID,0,VALID,25.0674,VALID,151,VALID,0.888672,
2011-09-28, 00:49:04,VALID,998.771,VALID,0,VALID,80.7595,VALID,0,VALID,25.0479,VALID,170,VALID,1.49531,
2011-09-28, 00:50:04,VALID,998.774,VALID,0,VALID,80.5535,VALID,0,VALID,25.1083,VALID,180,VALID,1.52383,
2011-09-28, 00:51:04,VALID,998.764,VALID,0,VALID,79.0123,VALID,0,VALID,25.1845,VALID,195,VALID,1.57539,
2011-09-28, 00:52:04,VALID,998.755,VALID,0,VALID,77.3186,VALID,0,VALID,25.3017,VALID,157,VALID,2.24492,
2011-09-28, 00:53:04,VALID,998.775,VALID,0,VALID,76.136,VALID,0,VALID,25.4188,VALID,118,VALID,2.1832,
2011-09-28, 00:54:04,VALID,998.777,VALID,0,VALID,76.1818,VALID,0,VALID,25.5379,VALID,123,VALID,2.06797,
2011-09-28, 00:55:04,VALID,998.728,VALID,0,VALID,76.7006,VALID,0,VALID,25.5359,VALID,112,VALID,1.39414,
2011-09-28, 00:56:04,VALID,998.726,VALID,0,VALID,76.4717,VALID,0,VALID,25.5359,VALID,128,VALID,1.19023,
2011-09-28, 00:57:04,VALID,998.749,VALID,0,VALID,76.2123,VALID,0,VALID,25.5359,VALID,150,VALID,1.53672,
2011-09-28, 00:58:04,VALID,998.72,VALID,0,VALID,76.5785,VALID,0,VALID,25.5145,VALID,163,VALID,1.42227,
2011-09-28, 00:59:04,VALID,998.655,VALID,0,VALID,76.7311,VALID,0,VALID,25.534,VALID,154,VALID,0.604297,
2011-09-28, 01:00:04,VALID,998.687,VALID,0,VALID,77.0363,VALID,0,VALID,25.4969,VALID,121,VALID,1.1375,
2011-09-28, 01:01:04,VALID,998.722,VALID,0,VALID,77.5017,VALID,0,VALID,25.4578,VALID,137,VALID,1.30859,
2011-09-28, 01:02:04,VALID,998.726,VALID,0,VALID,77.0668,VALID,0,VALID,25.4188,VALID,142,VALID,1.38281,
2011-09-28, 01:03:04,VALID,998.73,VALID,0,VALID,75.8079,VALID,0,VALID,25.3973,VALID,141,VALID,1.25195,
2011-09-28, 01:04:04,VALID,998.683,VALID,0,VALID,75.167,VALID,0,VALID,25.4754,VALID,125,VALID,0.677734,
2011-09-28, 01:05:04,VALID,998.68,VALID,0,VALID,76.0521,VALID,0,VALID,25.5164,VALID,125,VALID,0.329688,
2011-09-28, 01:06:04,VALID,998.675,VALID,0,VALID,75.5027,VALID,0,VALID,25.5164,VALID,218,VALID,0.676172,
2011-09-28, 01:07:04,VALID,998.703,VALID,0,VALID,76.5098,VALID,0,VALID,25.4969,VALID,244,VALID,0.859375,
2011-09-28, 01:08:04,VALID,998.671,VALID,0,VALID,77.5551,VALID,0,VALID,25.4578,VALID,244,VALID,1.27969,
2011-09-28, 01:09:04,VALID,998.687,VALID,0,VALID,78.4554,VALID,0,VALID,25.3778,VALID,249,VALID,1.43789,
2011-09-28, 01:10:04,VALID,998.687,VALID,0,VALID,78.5622,VALID,0,VALID,25.3212,VALID,262,VALID,1.51953,
2011-09-28, 01:11:04,VALID,998.655,VALID,0,VALID,78.8369,VALID,0,VALID,25.3212,VALID,280,VALID,0.817578,
2011-09-28, 01:12:04,VALID,998.693,VALID,0,VALID,79.5159,VALID,0,VALID,25.2236,VALID,281,VALID,0.620313,
2011-09-28, 01:13:04,VALID,998.699,VALID,0,VALID,80.1949,VALID,0,VALID,25.1064,VALID,281,VALID,0.669922,
2011-09-28, 01:14:04,VALID,998.708,VALID,0,VALID,80.5306,VALID,0,VALID,25.0088,VALID,281,VALID,0.93125,
2011-09-28, 01:15:04,VALID,998.71,VALID,0,VALID,80.79,VALID,0,VALID,24.9698,VALID,281,VALID,0.687891,
2011-09-28, 01:16:04,VALID,998.681,VALID,0,VALID,81.0571,VALID,0,VALID,24.8898,VALID,281,VALID,0.544531,
2011-09-28, 01:17:04,VALID,998.705,VALID,0,VALID,81.286,VALID,0,VALID,24.8722,VALID,281,VALID,0.787891,
2011-09-28, 01:18:04,VALID,998.69,VALID,0,VALID,81.3852,VALID,0,VALID,24.8117,VALID,281,VALID,0.902734,
2011-09-28, 01:19:04,VALID,998.722,VALID,0,VALID,81.9192,VALID,0,VALID,24.7941,VALID,262,VALID,1.16094,
2011-09-28, 01:20:04,VALID,998.701,VALID,0,VALID,82.0947,VALID,0,VALID,24.7551,VALID,270,VALID,0.881641,
2011-09-28, 01:21:04,VALID,998.683,VALID,0,VALID,82.2015,VALID,0,VALID,24.716,VALID,280,VALID,0.711719,
2011-09-28, 01:22:04,VALID,998.647,VALID,0,VALID,82.5372,VALID,0,VALID,24.677,VALID,263,VALID,0.952344,
2011-09-28, 01:23:04,VALID,998.615,VALID,0,VALID,82.5372,VALID,0,VALID,24.677,VALID,257,VALID,1.08125,
2011-09-28, 01:24:04,VALID,998.558,VALID,0,VALID,82.5677,VALID,0,VALID,24.6361,VALID,238,VALID,1.60312,
2011-09-28, 01:25:04,VALID,998.541,VALID,0,VALID,82.3541,VALID,0,VALID,24.677,VALID,244,VALID,1.2625,
2011-09-28, 01:26:04,VALID,998.529,VALID,0,VALID,82.5143,VALID,0,VALID,24.6575,VALID,278,VALID,0.675,
2011-09-28, 01:27:04,VALID,998.513,VALID,0,VALID,82.5677,VALID,0,VALID,24.638,VALID,238,VALID,0.078125,
2011-09-28, 01:28:04,VALID,998.547,VALID,0,VALID,82.6746,VALID,0,VALID,24.5989,VALID,238,VALID,0.0914062,
2011-09-28, 01:29:04,VALID,998.618,VALID,0,VALID,82.7966,VALID,0,VALID,24.5794,VALID,238,VALID,0,
2011-09-28, 01:30:04,VALID,998.592,VALID,0,VALID,82.8806,VALID,0,VALID,24.5404,VALID,238,VALID,0,
2011-09-28, 01:31:04,VALID,998.538,VALID,0,VALID,83.2163,VALID,0,VALID,24.5013,VALID,1,VALID,1.34023,
2011-09-28, 01:32:04,VALID,998.575,VALID,0,VALID,83.8724,VALID,0,VALID,24.4037,VALID,20,VALID,1.3293,
2011-09-28, 01:33:04,VALID,998.609,VALID,0,VALID,84.6506,VALID,0,VALID,24.2885,VALID,24,VALID,0.555469,
2011-09-28, 01:34:04,VALID,998.572,VALID,0,VALID,85.1771,VALID,0,VALID,24.1482,VALID,24,VALID,0.188672,
2011-09-28, 01:35:04,VALID,998.552,VALID,0,VALID,85.5433,VALID,0,VALID,24.0915,VALID,24,VALID,0.208203,
2011-09-28, 01:36:04,VALID,998.506,VALID,0,VALID,85.9172,VALID,0,VALID,24.0134,VALID,24,VALID,0.501172,
2011-09-28, 01:37:04,VALID,998.502,VALID,0,VALID,86.2834,VALID,0,VALID,23.9531,VALID,24,VALID,0.407422,
2011-09-28, 01:38:04,VALID,998.433,VALID,0,VALID,86.3826,VALID,0,VALID,23.9354,VALID,24,VALID,0.148828,
2011-09-28, 01:39:04,VALID,998.483,VALID,0,VALID,86.3292,VALID,0,VALID,23.9567,VALID,77,VALID,0.844531,
2011-09-28, 01:40:04,VALID,998.446,VALID,0,VALID,86.0469,VALID,0,VALID,23.9549,VALID,82,VALID,0.0886719,
2011-09-28, 01:41:04,VALID,998.414,VALID,0,VALID,86.1689,VALID,0,VALID,23.9549,VALID,82,VALID,0.255859,
2011-09-28, 01:42:04,VALID,998.444,VALID,0,VALID,86.6191,VALID,0,VALID,23.914,VALID,81,VALID,0.748047,
2011-09-28, 01:43:04,VALID,998.433,VALID,0,VALID,86.8937,VALID,0,VALID,23.8573,VALID,72,VALID,1.19297,
2011-09-28, 01:44:04,VALID,998.395,VALID,0,VALID,87.2523,VALID,0,VALID,23.7597,VALID,67,VALID,1.6918,
2011-09-28, 01:45:04,VALID,998.392,VALID,0,VALID,87.672,VALID,0,VALID,23.6622,VALID,70,VALID,1.06328,
2011-09-28, 01:46:04,VALID,998.389,VALID,0,VALID,87.9848,VALID,0,VALID,23.5841,VALID,57,VALID,0.623828,
2011-09-28, 01:47:04,VALID,998.4,VALID,0,VALID,88.2366,VALID,0,VALID,23.5043,VALID,46,VALID,0.978516,
2011-09-28, 01:48:04,VALID,998.403,VALID,0,VALID,88.4883,VALID,0,VALID,23.5061,VALID,54,VALID,1.12148,
2011-09-28, 01:49:04,VALID,998.437,VALID,0,VALID,88.7477,VALID,0,VALID,23.4458,VALID,71,VALID,0.805078,
2011-09-28, 01:50:04,VALID,998.408,VALID,0,VALID,88.8698,VALID,0,VALID,23.428,VALID,71,VALID,0.292188,
2011-09-28, 01:51:04,VALID,998.407,VALID,0,VALID,88.9385,VALID,0,VALID,23.4085,VALID,71,VALID,0.314453,
2011-09-28, 01:52:04,VALID,998.343,VALID,0,VALID,89.0453,VALID,0,VALID,23.389,VALID,71,VALID,0.698828,
2011-09-28, 01:53:04,VALID,998.316,VALID,0,VALID,89.114,VALID,0,VALID,23.3695,VALID,43,VALID,1.46055,
2011-09-28, 01:54:04,VALID,998.317,VALID,0,VALID,89.0911,VALID,0,VALID,23.35,VALID,43,VALID,1.43711,
2011-09-28, 01:55:04,VALID,998.371,VALID,0,VALID,89.114,VALID,0,VALID,23.311,VALID,43,VALID,0.45,
2011-09-28, 01:56:04,VALID,998.371,VALID,0,VALID,89.1674,VALID,0,VALID,23.2702,VALID,65,VALID,0.598047,
2011-09-28, 01:57:04,VALID,998.28,VALID,0,VALID,88.9461,VALID,0,VALID,23.2524,VALID,23,VALID,1.80234,
2011-09-28, 01:58:04,VALID,998.35,VALID,0,VALID,88.9537,VALID,0,VALID,23.2329,VALID,30,VALID,0.977734,
2011-09-28, 01:59:04,VALID,998.387,VALID,0,VALID,89.114,VALID,0,VALID,23.2152,VALID,32,VALID,0.969922,
2011-09-28, 02:00:04,VALID,998.373,VALID,0,VALID,89.2818,VALID,0,VALID,23.1744,VALID,32,VALID,1.0707,
2011-09-28, 02:01:04,VALID,998.353,VALID,0,VALID,89.442,VALID,0,VALID,23.1336,VALID,32,VALID,1.03828,
2011-09-28, 02:02:04,VALID,998.308,VALID,0,VALID,89.5489,VALID,0,VALID,23.1371,VALID,25,VALID,1.22109,
2011-09-28, 02:03:04,VALID,998.351,VALID,0,VALID,89.6175,VALID,0,VALID,23.0786,VALID,24,VALID,1.0918,
2011-09-28, 02:04:04,VALID,998.345,VALID,0,VALID,89.7701,VALID,0,VALID,23.0378,VALID,24,VALID,0.808594,
2011-09-28, 02:05:04,VALID,998.308,VALID,0,VALID,89.9227,VALID,0,VALID,22.9988,VALID,42,VALID,0.723437,
2011-09-28, 02:06:04,VALID,998.304,VALID,0,VALID,90.1058,VALID,0,VALID,22.9793,VALID,44,VALID,1.06523,
2011-09-28, 02:07:04,VALID,998.294,VALID,0,VALID,90.2431,VALID,0,VALID,22.9598,VALID,52,VALID,1.03281,
2011-09-28, 02:08:04,VALID,998.3,VALID,0,VALID,90.3118,VALID,0,VALID,22.9403,VALID,58,VALID,1.09492,
2011-09-28, 02:09:04,VALID,998.313,VALID,0,VALID,90.3576,VALID,0,VALID,22.9208,VALID,67,VALID,1.17695,
2011-09-28, 02:10:04,VALID,998.323,VALID,0,VALID,90.3805,VALID,0,VALID,22.9208,VALID,53,VALID,1.22266,
2011-09-28, 02:11:04,VALID,998.306,VALID,0,VALID,90.4263,VALID,0,VALID,22.9013,VALID,44,VALID,1.08945,
2011-09-28, 02:12:04,VALID,998.318,VALID,0,VALID,90.472,VALID,0,VALID,22.9013,VALID,37,VALID,1.34648,
2011-09-28, 02:13:04,VALID,998.335,VALID,0,VALID,90.5941,VALID,0,VALID,22.8623,VALID,31,VALID,1.23125,
2011-09-28, 02:14:04,VALID,998.339,VALID,0,VALID,90.5331,VALID,0,VALID,22.8427,VALID,7,VALID,1.00664,
2011-09-28, 02:15:04,VALID,998.356,VALID,0,VALID,90.5026,VALID,0,VALID,22.8232,VALID,7,VALID,1.08945,
2011-09-28, 02:16:04,VALID,998.372,VALID,0,VALID,90.411,VALID,0,VALID,22.8232,VALID,7,VALID,0.6875,
2011-09-28, 02:17:04,VALID,998.399,VALID,0,VALID,90.4186,VALID,0,VALID,22.8232,VALID,7,VALID,0.504687,
2011-09-28, 02:18:04,VALID,998.408,VALID,0,VALID,90.4568,VALID,0,VALID,22.8037,VALID,7,VALID,0.551172,
2011-09-28, 02:19:04,VALID,998.443,VALID,0,VALID,90.4797,VALID,0,VALID,22.7842,VALID,7,VALID,0.504687,
2011-09-28, 02:20:04,VALID,998.436,VALID,0,VALID,90.4949,VALID,0,VALID,22.7647,VALID,7,VALID,0.373047,
2011-09-28, 02:21:04,VALID,998.479,VALID,0,VALID,90.4339,VALID,0,VALID,22.7452,VALID,7,VALID,0.128516,
2011-09-28, 02:22:04,VALID,998.469,VALID,0,VALID,90.4263,VALID,0,VALID,22.7062,VALID,7,VALID,0,
2011-09-28, 02:23:04,VALID,998.433,VALID,0,VALID,90.5178,VALID,0,VALID,22.6672,VALID,7,VALID,0,
2011-09-28, 02:24:04,VALID,998.453,VALID,0,VALID,90.556,VALID,0,VALID,22.6282,VALID,7,VALID,0,
2011-09-28, 02:25:04,VALID,998.444,VALID,0,VALID,90.7238,VALID,0,VALID,22.6282,VALID,7,VALID,0.127344,
2011-09-28, 02:26:04,VALID,998.449,VALID,0,VALID,90.8688,VALID,0,VALID,22.6282,VALID,7,VALID,0.284766,
2011-09-28, 02:27:04,VALID,998.431,VALID,0,VALID,90.9298,VALID,0,VALID,22.6087,VALID,7,VALID,0.296875,
2011-09-28, 02:28:04,VALID,998.426,VALID,0,VALID,91.0214,VALID,0,VALID,22.5892,VALID,7,VALID,0.575781,
2011-09-28, 02:29:04,VALID,998.441,VALID,0,VALID,91.0214,VALID,0,VALID,22.5892,VALID,7,VALID,0.539844,
2011-09-28, 02:30:04,VALID,998.426,VALID,0,VALID,91.0214,VALID,0,VALID,22.5501,VALID,7,VALID,0.45,
2011-09-28, 02:31:04,VALID,998.471,VALID,0,VALID,90.9985,VALID,0,VALID,22.5094,VALID,7,VALID,0.623438,
2011-09-28, 02:32:04,VALID,998.461,VALID,0,VALID,91.1053,VALID,0,VALID,22.5111,VALID,7,VALID,0.664063,
2011-09-28, 02:33:04,VALID,998.447,VALID,0,VALID,91.2121,VALID,0,VALID,22.5306,VALID,7,VALID,0.473047,
2011-09-28, 02:34:04,VALID,998.451,VALID,0,VALID,91.1663,VALID,0,VALID,22.5306,VALID,7,VALID,0.311719,
2011-09-28, 02:35:04,VALID,998.454,VALID,0,VALID,91.0824,VALID,0,VALID,22.5306,VALID,7,VALID,0.302344,
2011-09-28, 02:36:04,VALID,998.451,VALID,0,VALID,91.1129,VALID,0,VALID,22.5094,VALID,7,VALID,0.126563,
2011-09-28, 02:37:04,VALID,998.422,VALID,0,VALID,91.0595,VALID,0,VALID,22.4899,VALID,7,VALID,0.337891,
2011-09-28, 02:38:04,VALID,998.442,VALID,0,VALID,91.0977,VALID,0,VALID,22.5111,VALID,7,VALID,0.663672,
2011-09-28, 02:39:04,VALID,998.459,VALID,0,VALID,91.0824,VALID,0,VALID,22.5501,VALID,7,VALID,0.810156,
2011-09-28, 02:40:04,VALID,998.442,VALID,0,VALID,90.8993,VALID,0,VALID,22.5892,VALID,7,VALID,0.799609,
2011-09-28, 02:41:04,VALID,998.506,VALID,0,VALID,90.7162,VALID,0,VALID,22.6282,VALID,101,VALID,1.20156,
2011-09-28, 02:42:04,VALID,998.497,VALID,0,VALID,90.6933,VALID,0,VALID,22.6672,VALID,108,VALID,1.19922,
2011-09-28, 02:43:04,VALID,998.541,VALID,0,VALID,90.6704,VALID,0,VALID,22.6477,VALID,108,VALID,0.7125,
2011-09-28, 02:44:04,VALID,998.572,VALID,0,VALID,90.5788,VALID,0,VALID,22.6282,VALID,108,VALID,0.572266,
2011-09-28, 02:45:04,VALID,998.6,VALID,0,VALID,90.6475,VALID,0,VALID,22.6299,VALID,108,VALID,0.689844,
2011-09-28, 02:46:04,VALID,998.616,VALID,0,VALID,90.8917,VALID,0,VALID,22.6282,VALID,108,VALID,0.863672,
2011-09-28, 02:47:04,VALID,998.659,VALID,0,VALID,91.0443,VALID,0,VALID,22.6477,VALID,108,VALID,1.07344,
2011-09-28, 02:48:04,VALID,998.662,VALID,0,VALID,91.1206,VALID,0,VALID,22.6672,VALID,127,VALID,1.125,
2011-09-28, 02:49:04,VALID,998.688,VALID,0,VALID,91.1663,VALID,0,VALID,22.6867,VALID,128,VALID,1.01953,
2011-09-28, 02:50:04,VALID,998.679,VALID,0,VALID,91.2731,VALID,0,VALID,22.7257,VALID,128,VALID,0.608984,
2011-09-28, 02:51:04,VALID,998.658,VALID,0,VALID,91.3037,VALID,0,VALID,22.7257,VALID,128,VALID,0.428516,
2011-09-28, 02:52:04,VALID,998.619,VALID,0,VALID,91.3266,VALID,0,VALID,22.7062,VALID,128,VALID,0.805859,
2011-09-28, 02:53:04,VALID,998.645,VALID,0,VALID,91.3723,VALID,0,VALID,22.7062,VALID,77,VALID,0.930078,
2011-09-28, 02:54:04,VALID,998.698,VALID,0,VALID,91.3647,VALID,0,VALID,22.6867,VALID,77,VALID,0.280469,
2011-09-28, 02:55:04,VALID,998.699,VALID,0,VALID,91.3113,VALID,0,VALID,22.6884,VALID,77,VALID,0.0847656,
2011-09-28, 02:56:04,VALID,998.662,VALID,0,VALID,91.2655,VALID,0,VALID,22.6087,VALID,77,VALID,0,
2011-09-28, 02:57:04,VALID,998.727,VALID,0,VALID,91.3342,VALID,0,VALID,22.5892,VALID,77,VALID,0.316797,
2011-09-28, 02:58:04,VALID,998.716,VALID,0,VALID,91.5173,VALID,0,VALID,22.6087,VALID,77,VALID,0.330078,
2011-09-28, 02:59:04,VALID,998.722,VALID,0,VALID,91.6546,VALID,0,VALID,22.6087,VALID,77,VALID,0.493359,
2011-09-28, 03:00:04,VALID,998.672,VALID,0,VALID,91.7614,VALID,0,VALID,22.6087,VALID,77,VALID,0.588281,
2011-09-28, 03:01:04,VALID,998.688,VALID,0,VALID,91.8377,VALID,0,VALID,22.6282,VALID,77,VALID,0.554297,
2011-09-28, 03:02:04,VALID,998.708,VALID,0,VALID,91.8911,VALID,0,VALID,22.6477,VALID,111,VALID,1.29102,
2011-09-28, 03:03:04,VALID,998.715,VALID,0,VALID,91.9064,VALID,0,VALID,22.6494,VALID,111,VALID,0.911719,
2011-09-28, 03:04:04,VALID,998.724,VALID,0,VALID,91.9445,VALID,0,VALID,22.6477,VALID,111,VALID,0.684375,
2011-09-28, 03:05:04,VALID,998.761,VALID,0,VALID,91.914,VALID,0,VALID,22.6282,VALID,111,VALID,0.742969,
2011-09-28, 03:06:04,VALID,998.761,VALID,0,VALID,91.9522,VALID,0,VALID,22.6282,VALID,111,VALID,0.717969,
2011-09-28, 03:07:04,VALID,998.798,VALID,0,VALID,91.9598,VALID,0,VALID,22.6087,VALID,111,VALID,0.602734,
2011-09-28, 03:08:04,VALID,998.791,VALID,0,VALID,92.0209,VALID,0,VALID,22.6087,VALID,111,VALID,0.526953,
2011-09-28, 03:09:04,VALID,998.845,VALID,0,VALID,92.1048,VALID,0,VALID,22.6087,VALID,111,VALID,0.0398437,
2011-09-28, 03:10:04,VALID,998.87,VALID,0,VALID,92.0971,VALID,0,VALID,22.6087,VALID,111,VALID,0.5,
2011-09-28, 03:11:04,VALID,998.814,VALID,0,VALID,92.1277,VALID,0,VALID,22.6087,VALID,65,VALID,1.15156,
2011-09-28, 03:12:04,VALID,998.833,VALID,0,VALID,92.059,VALID,0,VALID,22.5892,VALID,52,VALID,0.8875,
2011-09-28, 03:13:04,VALID,998.817,VALID,0,VALID,91.9293,VALID,0,VALID,22.5306,VALID,52,VALID,0.802734,
2011-09-28, 03:14:04,VALID,998.839,VALID,0,VALID,91.7614,VALID,0,VALID,22.4721,VALID,52,VALID,0.902734,
2011-09-28, 03:15:04,VALID,998.825,VALID,0,VALID,91.6241,VALID,0,VALID,22.3941,VALID,52,VALID,0.824219,
2011-09-28, 03:16:04,VALID,998.815,VALID,0,VALID,91.5707,VALID,0,VALID,22.3958,VALID,34,VALID,1.02891,
2011-09-28, 03:17:04,VALID,998.854,VALID,0,VALID,91.3037,VALID,0,VALID,22.4331,VALID,33,VALID,0.732813,
2011-09-28, 03:18:04,VALID,998.857,VALID,0,VALID,90.8611,VALID,0,VALID,22.4526,VALID,33,VALID,0.524609,
2011-09-28, 03:19:04,VALID,998.853,VALID,0,VALID,90.5102,VALID,0,VALID,22.4331,VALID,33,VALID,0.530859,
2011-09-28, 03:20:04,VALID,998.845,VALID,0,VALID,90.3423,VALID,0,VALID,22.3941,VALID,33,VALID,0.471094,
2011-09-28, 03:21:04,VALID,998.883,VALID,0,VALID,90.3881,VALID,0,VALID,22.3746,VALID,33,VALID,0.220703,
2011-09-28, 03:22:04,VALID,998.855,VALID,0,VALID,90.4186,VALID,0,VALID,22.3551,VALID,33,VALID,0.470703,
2011-09-28, 03:23:04,VALID,998.883,VALID,0,VALID,90.5331,VALID,0,VALID,22.3161,VALID,33,VALID,0.602734,
2011-09-28, 03:24:04,VALID,998.918,VALID,0,VALID,90.7391,VALID,0,VALID,22.3568,VALID,33,VALID,0.409766,
2011-09-28, 03:25:04,VALID,998.94,VALID,0,VALID,90.884,VALID,0,VALID,22.3356,VALID,33,VALID,0.7375,
2011-09-28, 03:26:04,VALID,998.937,VALID,0,VALID,90.968,VALID,0,VALID,22.3551,VALID,22,VALID,1.00156,
2011-09-28, 03:27:04,VALID,998.956,VALID,0,VALID,90.9451,VALID,0,VALID,22.3551,VALID,354,VALID,0.9125,
2011-09-28, 03:28:04,VALID,998.953,VALID,0,VALID,90.823,VALID,0,VALID,22.3941,VALID,354,VALID,0.828125,
2011-09-28, 03:29:04,VALID,998.939,VALID,0,VALID,90.7009,VALID,0,VALID,22.4136,VALID,354,VALID,0.885547,
2011-09-28, 03:30:04,VALID,998.926,VALID,0,VALID,90.7085,VALID,0,VALID,22.4331,VALID,354,VALID,0.776953,
2011-09-28, 03:31:04,VALID,998.918,VALID,0,VALID,90.6551,VALID,0,VALID,22.4543,VALID,354,VALID,0.862109,
2011-09-28, 03:32:04,VALID,998.953,VALID,0,VALID,90.7849,VALID,0,VALID,22.4136,VALID,354,VALID,0.663672,
2011-09-28, 03:33:04,VALID,998.943,VALID,0,VALID,90.8077,VALID,0,VALID,22.3941,VALID,354,VALID,0.308594,
2011-09-28, 03:34:04,VALID,998.917,VALID,0,VALID,90.9146,VALID,0,VALID,22.3551,VALID,354,VALID,0.3375,
2011-09-28, 03:35:04,VALID,998.939,VALID,0,VALID,91.0366,VALID,0,VALID,22.3356,VALID,354,VALID,0.459375,
2011-09-28, 03:36:04,VALID,998.938,VALID,0,VALID,91.1663,VALID,0,VALID,22.3161,VALID,354,VALID,0.518359,
2011-09-28, 03:37:04,VALID,998.952,VALID,0,VALID,91.3189,VALID,0,VALID,22.3178,VALID,9,VALID,0.864062,
2011-09-28, 03:38:04,VALID,998.934,VALID,0,VALID,91.3876,VALID,0,VALID,22.2771,VALID,29,VALID,1.17656,
2011-09-28, 03:39:04,VALID,998.944,VALID,0,VALID,91.502,VALID,0,VALID,22.2381,VALID,40,VALID,1.24219,
2011-09-28, 03:40:04,VALID,998.944,VALID,0,VALID,91.5707,VALID,0,VALID,22.2576,VALID,43,VALID,1.00703,
2011-09-28, 03:41:04,VALID,998.948,VALID,0,VALID,91.5402,VALID,0,VALID,22.2576,VALID,43,VALID,1.00859,
2011-09-28, 03:42:04,VALID,998.97,VALID,0,VALID,91.502,VALID,0,VALID,22.2576,VALID,43,VALID,0.735547,
2011-09-28, 03:43:04,VALID,998.997,VALID,0,VALID,91.4944,VALID,0,VALID,22.2381,VALID,43,VALID,0.73125,
2011-09-28, 03:44:04,VALID,998.983,VALID,0,VALID,91.4791,VALID,0,VALID,22.2186,VALID,43,VALID,0.564062,
2011-09-28, 03:45:04,VALID,999.027,VALID,0,VALID,91.4257,VALID,0,VALID,22.199,VALID,43,VALID,0.190625,
2011-09-28, 03:46:04,VALID,999.036,VALID,0,VALID,91.3647,VALID,0,VALID,22.16,VALID,43,VALID,0.309766,
2011-09-28, 03:47:04,VALID,999.034,VALID,0,VALID,91.3723,VALID,0,VALID,22.1405,VALID,43,VALID,0.420312,